Time,TemperatureF,DewpointF,PressureIn,WindDirection,WindDirectionDegrees,WindSpeedMPH,WindSpeedGustMPH,Humidity,HourlyPrecipIn,Conditions,Clouds,dailyrainin,SoftwareType,DateUTC
2013-02-03 00:09:00,51.7,50.0,30.07,NNE,26,0.0,-999.0,95,-99.99,,,0.00,weatherlink.com 1.10,2013-02-03 05:09:00,
2013-02-03 00:24:00,51.4,50.0,30.07,NNE,26,0.0,-999.0,95,-99.99,,,0.00,weatherlink.com 1.10,2013-02-03 05:24:00,
2013-02-03 00:39:00,51.5,50.0,30.07,NNE,26,0.0,-999.0,96,-99.99,,,0.00,weatherlink.com 1.10,2013-02-03 05:39:00,
2013-02-03 00:54:00,50.8,50.0,30.07,NNE,26,0.0,-999.0,96,-99.99,,,0.00,weatherlink.com 1.10,2013-02-03 05:54:00,
2013-02-03 01:09:00,52.2,51.0,30.07,WNW,292,3.0,-999.0,96,-99.99,,,0.00,weatherlink.com 1.10,2013-02-03 06:09:00,
2013-02-03 01:24:00,53.3,52.0,30.07,WNW,287,5.0,-999.0,94,-99.99,,,0.00,weatherlink.com 1.10,2013-02-03 06:24:00,
2013-02-03 01:39:00,53.6,52.0,30.07,WNW,296,2.0,-999.0,94,-99.99,,,0.00,weatherlink.com 1.10,2013-02-03 06:39:00,
2013-02-03 01:54:00,53.6,52.0,30.07,WNW,296,0.0,-999.0,94,-99.99,,,0.00,weatherlink.com 1.10,2013-02-03 06:54:00,
2013-02-03 02:09:00,53.7,52.0,30.06,WNW,296,0.0,-999.0,93,-99.99,,,0.00,weatherlink.com 1.10,2013-02-03 07:09:00,
2013-02-03 02:24:00,53.7,52.0,30.05,WNW,296,0.0,-999.0,93,-99.99,,,0.00,weatherlink.com 1.10,2013-02-03 07:24:00,
2013-02-03 02:39:00,53.3,51.0,30.05,WNW,296,0.0,-999.0,92,-99.99,,,0.00,weatherlink.com 1.10,2013-02-03 07:39:00,
2013-02-03 02:54:00,53.0,51.0,30.05,WNW,296,0.0,-999.0,93,-99.99,,,0.00,weatherlink.com 1.10,2013-02-03 07:54:00,
2013-02-03 03:09:00,52.9,51.0,30.05,WNW,296,0.0,-999.0,92,-99.99,,,0.00,weatherlink.com 1.10,2013-02-03 08:09:00,
2013-02-03 03:24:00,52.5,50.0,30.05,WNW,296,0.0,-999.0,92,-99.99,,,0.00,weatherlink.com 1.10,2013-02-03 08:24:00,
2013-02-03 03:39:00,51.9,50.0,30.05,WNW,296,0.0,-999.0,92,-99.99,,,0.00,weatherlink.com 1.10,2013-02-03 08:39:00,
2013-02-03 03:54:00,51.4,50.0,30.04,WNW,296,0.0,-999.0,93,-99.99,,,0.00,weatherlink.com 1.10,2013-02-03 08:54:00,
2013-02-03 04:09:00,51.2,49.0,30.04,WNW,296,0.0,-999.0,93,-99.99,,,0.00,weatherlink.com 1.10,2013-02-03 09:09:00,
2013-02-03 04:24:00,51.2,49.0,30.04,WNW,296,0.0,-999.0,93,-99.99,,,0.00,weatherlink.com 1.10,2013-02-03 09:24:00,
2013-02-03 04:39:00,51.2,49.0,30.04,WNW,296,0.0,-999.0,92,-99.99,,,0.00,weatherlink.com 1.10,2013-02-03 09:39:00,
2013-02-03 04:54:00,50.9,48.0,30.04,WNW,296,0.0,-999.0,91,-99.99,,,0.00,weatherlink.com 1.10,2013-02-03 09:54:00,
2013-02-03 05:10:00,50.9,48.0,30.04,WNW,296,0.0,-999.0,91,-99.99,,,0.00,weatherlink.com 1.10,2013-02-03 10:10:00,
2013-02-03 05:24:00,50.1,48.0,30.05,WNW,296,0.0,-999.0,91,-99.99,,,0.00,weatherlink.com 1.10,2013-02-03 10:24:00,
2013-02-03 05:39:00,50.1,48.0,30.05,WNW,296,0.0,-999.0,91,-99.99,,,0.00,weatherlink.com 1.10,2013-02-03 10:39:00,
2013-02-03 05:54:00,49.9,47.0,30.05,WNW,296,0.0,-999.0,91,-99.99,,,0.00,weatherlink.com 1.10,2013-02-03 10:54:00,
2013-02-03 06:10:00,50.2,47.0,30.06,WNW,296,0.0,-999.0,89,-99.99,,,0.00,weatherlink.com 1.10,2013-02-03 11:10:00,
2013-02-03 06:25:00,50.1,47.0,30.07,WNW,296,0.0,-999.0,89,-99.99,,,0.00,weatherlink.com 1.10,2013-02-03 11:25:00,
2013-02-03 06:39:00,49.8,47.0,30.07,WNW,296,0.0,-999.0,89,-99.99,,,0.00,weatherlink.com 1.10,2013-02-03 11:39:00,
2013-02-03 06:54:00,49.4,47.0,30.08,WNW,296,0.0,-999.0,90,-99.99,,,0.00,weatherlink.com 1.10,2013-02-03 11:54:00,
2013-02-03 07:09:00,49.6,47.0,30.08,WNW,296,0.0,-999.0,90,-99.99,,,0.00,weatherlink.com 1.10,2013-02-03 12:09:00,
2013-02-03 07:24:00,49.6,47.0,30.09,WNW,296,2.0,-999.0,91,-99.99,,,0.00,weatherlink.com 1.10,2013-02-03 12:24:00,
2013-02-03 07:39:00,50.5,48.0,30.09,WNW,296,2.0,-999.0,90,-99.99,,,0.00,weatherlink.com 1.10,2013-02-03 12:39:00,
2013-02-03 07:55:00,51.0,47.0,30.10,WNW,296,5.0,-999.0,87,-99.99,,,0.00,weatherlink.com 1.10,2013-02-03 12:55:00,
2013-02-03 08:09:00,51.6,48.0,30.11,WNW,295,3.0,-999.0,86,-99.99,,,0.00,weatherlink.com 1.10,2013-02-03 13:09:00,
2013-02-03 08:25:00,52.4,48.0,30.11,WNW,299,0.0,-999.0,85,-99.99,,,0.00,weatherlink.com 1.10,2013-02-03 13:25:00,
2013-02-03 08:40:00,52.6,48.0,30.12,WNW,292,2.0,-999.0,83,-99.99,,,0.00,weatherlink.com 1.10,2013-02-03 13:40:00,
2013-02-03 08:55:00,53.7,48.0,30.13,NW,308,2.0,-999.0,81,-99.99,,,0.00,weatherlink.com 1.10,2013-02-03 13:55:00,
2013-02-03 09:10:00,55.3,48.0,30.13,WNW,301,0.0,-999.0,76,-99.99,,,0.00,weatherlink.com 1.10,2013-02-03 14:10:00,
2013-02-03 09:25:00,56.6,48.0,30.13,WNW,298,0.0,-999.0,73,-99.99,,,0.00,weatherlink.com 1.10,2013-02-03 14:25:00,
2013-02-03 09:40:00,58.7,47.0,30.14,NW,321,0.0,-999.0,65,-99.99,,,0.00,weatherlink.com 1.10,2013-02-03 14:40:00,
2013-02-03 09:55:00,60.8,46.0,30.13,North,349,0.0,-999.0,59,-99.99,,,0.00,weatherlink.com 1.10,2013-02-03 14:55:00,
2013-02-03 10:10:00,64.0,45.0,30.13,North,5,2.0,-999.0,51,-99.99,,,0.00,weatherlink.com 1.10,2013-02-03 15:10:00,
2013-02-03 10:25:00,64.7,42.0,30.13,North,5,7.0,-999.0,43,-99.99,,,0.00,weatherlink.com 1.10,2013-02-03 15:25:00,
2013-02-03 10:40:00,63.5,42.0,30.13,ENE,57,6.0,-999.0,46,-99.99,,,0.00,weatherlink.com 1.10,2013-02-03 15:40:00,
2013-02-03 10:55:00,64.4,44.0,30.12,NNE,19,6.0,-999.0,47,-99.99,,,0.00,weatherlink.com 1.10,2013-02-03 15:55:00,
2013-02-03 11:10:00,64.5,44.0,30.12,NE,34,0.0,-999.0,47,-99.99,,,0.00,weatherlink.com 1.10,2013-02-03 16:10:00,
2013-02-03 11:25:00,65.2,46.0,30.11,NNE,24,0.0,-999.0,50,-99.99,,,0.00,weatherlink.com 1.10,2013-02-03 16:25:00,
2013-02-03 11:40:00,65.9,47.0,30.11,NNE,15,8.0,-999.0,50,-99.99,,,0.00,weatherlink.com 1.10,2013-02-03 16:40:00,
2013-02-03 11:55:00,66.3,46.0,30.10,North,360,4.0,-999.0,48,-99.99,,,0.00,weatherlink.com 1.10,2013-02-03 16:55:00,
2013-02-03 12:10:00,67.3,46.0,30.10,North,349,7.0,-999.0,47,-99.99,,,0.00,weatherlink.com 1.10,2013-02-03 17:10:00,
2013-02-03 12:25:00,66.7,46.0,30.09,NE,53,7.0,-999.0,47,-99.99,,,0.00,weatherlink.com 1.10,2013-02-03 17:25:00,
2013-02-03 12:40:00,68.2,48.0,30.08,North,11,3.0,-999.0,48,-99.99,,,0.00,weatherlink.com 1.10,2013-02-03 17:40:00,
2013-02-03 12:55:00,67.3,49.0,30.07,NE,52,5.0,-999.0,52,-99.99,,,0.00,weatherlink.com 1.10,2013-02-03 17:55:00,
2013-02-03 13:10:00,67.1,51.0,30.07,NE,44,7.0,-999.0,56,-99.99,,,0.00,weatherlink.com 1.10,2013-02-03 18:10:00,
2013-02-03 13:25:00,67.8,51.0,30.06,NNE,21,4.0,-999.0,55,-99.99,,,0.00,weatherlink.com 1.10,2013-02-03 18:25:00,
2013-02-03 13:40:00,67.9,52.0,30.05,ENE,57,4.0,-999.0,57,-99.99,,,0.00,weatherlink.com 1.10,2013-02-03 18:40:00,
2013-02-03 13:55:00,67.6,53.0,30.05,NE,44,10.0,-999.0,59,-99.99,,,0.00,weatherlink.com 1.10,2013-02-03 18:55:00,
2013-02-03 14:10:00,67.7,53.0,30.04,NE,41,5.0,-999.0,60,-99.99,,,0.00,weatherlink.com 1.10,2013-02-03 19:10:00,
2013-02-03 14:25:00,67.4,53.0,30.03,NE,44,3.0,-999.0,61,-99.99,,,0.00,weatherlink.com 1.10,2013-02-03 19:25:00,
2013-02-03 14:40:00,67.3,53.0,30.03,East,84,2.0,-999.0,60,-99.99,,,0.00,weatherlink.com 1.10,2013-02-03 19:40:00,
2013-02-03 14:55:00,66.5,54.0,30.02,ENE,58,3.0,-999.0,65,-99.99,,,0.00,weatherlink.com 1.10,2013-02-03 19:55:00,
2013-02-03 15:10:00,66.4,54.0,30.02,East,86,5.0,-999.0,64,-99.99,,,0.00,weatherlink.com 1.10,2013-02-03 20:10:00,
2013-02-03 15:25:00,67.1,55.0,30.02,NE,51,0.0,-999.0,65,-99.99,,,0.00,weatherlink.com 1.10,2013-02-03 20:25:00,
2013-02-03 15:40:00,67.2,54.0,30.02,ENE,71,0.0,-999.0,63,-99.99,,,0.00,weatherlink.com 1.10,2013-02-03 20:40:00,
2013-02-03 15:55:00,67.2,55.0,30.01,ENE,77,4.0,-999.0,64,-99.99,,,0.00,weatherlink.com 1.10,2013-02-03 20:55:00,
2013-02-03 16:10:00,66.8,55.0,30.01,East,90,4.0,-999.0,65,-99.99,,,0.00,weatherlink.com 1.10,2013-02-03 21:10:00,
2013-02-03 16:25:00,66.1,53.0,30.01,East,88,3.0,-999.0,63,-99.99,,,0.00,weatherlink.com 1.10,2013-02-03 21:25:00,
2013-02-03 16:40:00,65.9,53.0,30.01,East,88,2.0,-999.0,64,-99.99,,,0.00,weatherlink.com 1.10,2013-02-03 21:40:00,
2013-02-03 16:55:00,65.3,54.0,30.01,East,88,0.0,-999.0,67,-99.99,,,0.00,weatherlink.com 1.10,2013-02-03 21:55:00,
2013-02-03 17:10:00,64.5,54.0,30.01,East,88,0.0,-999.0,68,-99.99,,,0.00,weatherlink.com 1.10,2013-02-03 22:10:00,
2013-02-03 17:25:00,64.0,53.0,30.01,East,88,0.0,-999.0,68,-99.99,,,0.00,weatherlink.com 1.10,2013-02-03 22:25:00,
2013-02-03 17:40:00,62.6,54.0,30.01,East,88,0.0,-999.0,73,-99.99,,,0.00,weatherlink.com 1.10,2013-02-03 22:40:00,
2013-02-03 17:56:00,61.1,54.0,30.01,East,88,0.0,-999.0,77,-99.99,,,0.00,weatherlink.com 1.10,2013-02-03 22:56:00,
2013-02-03 18:10:00,59.5,53.0,30.01,East,88,0.0,-999.0,80,-99.99,,,0.00,weatherlink.com 1.10,2013-02-03 23:10:00,
2013-02-03 18:26:00,58.2,53.0,30.01,East,88,0.0,-999.0,84,-99.99,,,0.00,weatherlink.com 1.10,2013-02-03 23:26:00,
2013-02-03 18:40:00,57.1,53.0,30.01,East,88,0.0,-999.0,86,-99.99,,,0.00,weatherlink.com 1.10,2013-02-03 23:40:00,
2013-02-03 18:56:00,56.9,53.0,30.01,East,88,0.0,-999.0,86,-99.99,,,0.00,weatherlink.com 1.10,2013-02-03 23:56:00,
2013-02-03 19:11:00,56.0,52.0,30.01,East,88,0.0,-999.0,87,-99.99,,,0.00,weatherlink.com 1.10,2013-02-04 00:11:00,
2013-02-03 19:25:00,55.5,52.0,30.02,East,88,0.0,-999.0,87,-99.99,,,0.00,weatherlink.com 1.10,2013-02-04 00:25:00,
2013-02-03 19:40:00,55.2,52.0,30.02,East,88,0.0,-999.0,89,-99.99,,,0.00,weatherlink.com 1.10,2013-02-04 00:40:00,
2013-02-03 19:56:00,55.2,52.0,30.02,East,88,0.0,-999.0,88,-99.99,,,0.00,weatherlink.com 1.10,2013-02-04 00:56:00,
2013-02-03 20:10:00,55.5,52.0,30.03,East,89,0.0,-999.0,88,-99.99,,,0.00,weatherlink.com 1.10,2013-02-04 01:10:00,
2013-02-03 20:25:00,55.0,52.0,30.03,East,89,0.0,-999.0,88,-99.99,,,0.00,weatherlink.com 1.10,2013-02-04 01:25:00,
2013-02-03 20:40:00,54.8,51.0,30.03,East,90,0.0,-999.0,88,-99.99,,,0.00,weatherlink.com 1.10,2013-02-04 01:40:00,
2013-02-03 20:55:00,54.6,51.0,30.04,East,90,0.0,-999.0,88,-99.99,,,0.00,weatherlink.com 1.10,2013-02-04 01:55:00,
2013-02-03 21:10:00,53.3,50.0,30.04,East,90,0.0,-999.0,89,-99.99,,,0.00,weatherlink.com 1.10,2013-02-04 02:10:00,
2013-02-03 21:25:00,52.8,50.0,30.04,East,90,0.0,-999.0,90,-99.99,,,0.00,weatherlink.com 1.10,2013-02-04 02:25:00,
2013-02-03 21:41:00,52.1,49.0,30.04,East,90,0.0,-999.0,90,-99.99,,,0.00,weatherlink.com 1.10,2013-02-04 02:41:00,
2013-02-03 21:55:00,52.7,49.0,30.05,East,90,0.0,-999.0,88,-99.99,,,0.00,weatherlink.com 1.10,2013-02-04 02:55:00,
2013-02-03 22:11:00,52.8,49.0,30.04,East,90,0.0,-999.0,87,-99.99,,,0.00,weatherlink.com 1.10,2013-02-04 03:11:00,
2013-02-03 22:25:00,53.6,49.0,30.05,East,90,0.0,-999.0,84,-99.99,,,0.00,weatherlink.com 1.10,2013-02-04 03:25:00,
2013-02-03 22:40:00,53.4,48.0,30.04,East,87,0.0,-999.0,82,-99.99,,,0.00,weatherlink.com 1.10,2013-02-04 03:40:00,
2013-02-03 22:55:00,52.8,47.0,30.05,NW,318,0.0,-999.0,82,-99.99,,,0.00,weatherlink.com 1.10,2013-02-04 03:55:00,
2013-02-03 23:11:00,52.6,47.0,30.05,WNW,301,3.0,-999.0,81,-99.99,,,0.00,weatherlink.com 1.10,2013-02-04 04:11:00,
2013-02-03 23:26:00,52.7,47.0,30.05,WNW,295,3.0,-999.0,80,-99.99,,,0.00,weatherlink.com 1.10,2013-02-04 04:26:00,
2013-02-03 23:41:00,52.7,46.0,30.05,WNW,296,4.0,-999.0,78,-99.99,,,0.00,weatherlink.com 1.10,2013-02-04 04:41:00,
2013-02-03 23:56:00,52.6,46.0,30.05,NW,312,0.0,-999.0,78,-99.99,,,0.00,weatherlink.com 1.10,2013-02-04 04:56:00,